User: anonymous   Login
Location: Mactaquac Provincial Park
(45.9573°N, 66.8897°W)
Time: 21:23:49
(UTC-03:00)
Language:

Cosmos 1867 - Orbit

View from above orbital plane
View from above orbital plane
View from above satellite
View from above satellite

Ground track
Ground track

The orbit data is extracted from the following two-line orbital elements,

1 18187U 87060A   17080.52968116 -.00000095 +00000-0 +18871-5 0  9995
2 18187 065.0081 114.1240 0016124 257.7527 102.1752 14.31082756551229
Epoch (UTC): 21 March 2017 12:42:44
Eccentricity: 0.0016124
inclination: 65.0081°
perigee height: 776 km
apogee height: 799 km
right ascension of ascending node: 114.1240°
argument of perigee: 257.7527°
revolutions per day: 14.31082756
mean anomaly at epoch: 102.1752°
orbit number at epoch: 55122

The dashed part of the orbit path shows where the satellite is in the earth's shadow,  

DLR